Redmond, OR

1:11 AM PDT on October 18, 2017 (GMT -0700)
Roberts Field Airport

Weather History for KRDM - November, 2011

Change the Weather History Date:

Saturday, November 26, 2011

  Actual Average Record
Temperature  
Mean Temperature 44 °F 34 °F  
Max Temperature 57 °F 44 °F 69 °F (1950)
Min Temperature 31 °F 23 °F -6 °F (1993)
Degree Days  
Heating Degree Days 21 31  
Month to date heating degree days 740 702  
Since 1 July heating degree days 1578 1647  
Cooling Degree Days 0 0  
Month to date cooling degree days 0 0  
Year to date cooling degree days 155 222  
Moisture  
Dew Point 25 °F    
Average Humidity 47    
Maximum Humidity 61    
Minimum Humidity 32    
Precipitation  
Precipitation 0.00 in 0.03 in 0.28 in (1971)
Month to date precipitation 0.21 0.82  
Year to date precipitation 5.89 7.60  
Sea Level Pressure  
Sea Level Pressure 30.40 in    
Wind  
Wind Speed 8 mph (SE)    
Max Wind Speed 16 mph    
Max Gust Speed 20 mph    
Visibility 10 miles    
Events      
T = Trace of Precipitation, MM = Missing Value Source: NWS Daily Summary

Daily Weather History Graph

Daily Weather History Graph

Search for Another Location

Airport or City:

Trip Planner

Search our weather history database for the weather conditions in past years. The results will help you decide how hot, cold, wet, or windy it might be!

Date:

Astronomy

Nov. 26, 2011 Rise Set
Actual Time 7:14 AM PST 4:29 PM PST
Civil Twilight 6:41 AM PST 5:01 PM PST
Nautical Twilight 6:06 AM PST 5:37 PM PST
Astronomical Twilight 5:31 AM PST 6:12 PM PST
Moon 8:52 AM PST (11/26) 6:04 PM PST (11/26)
Length of Visible Light 10h 19m
Length of Day
9h 15m
Waxing Crescent, 4% of the Moon is Illuminated
Nov 26
Waxing Crescent
Dec 2
First Quarter
Dec 10
Full
Dec 17
Last Quarter
Dec 24
New

Hourly Weather History & Observations

Time (PST) Temp. Windchill Dew Point Humidity Pressure Visibility Wind Dir Wind Speed Gust Speed Precip Events Conditions
12:56 AM 36.0 °F 32.1 °F 21.9 °F 57% 30.44 in 10.0 mi SE 4.6 mph - N/A   Scattered Clouds
1:56 AM 33.1 °F - 21.9 °F 64% 30.46 in 10.0 mi Calm Calm - N/A   Scattered Clouds
2:56 AM 36.0 °F 30.3 °F 23.0 °F 59% 30.45 in 10.0 mi SSE 6.9 mph - N/A   Overcast
3:56 AM 39.0 °F 34.0 °F 24.1 °F 55% 30.46 in 10.0 mi East 6.9 mph - N/A   Overcast
4:56 AM 43.0 °F 38.8 °F 26.1 °F 51% 30.46 in 10.0 mi ESE 6.9 mph - N/A   Overcast
5:56 AM 39.0 °F - 25.0 °F 57% 30.48 in 10.0 mi Calm Calm - N/A   Overcast
6:56 AM 37.9 °F 33.5 °F 25.0 °F 60% 30.50 in 10.0 mi SSE 5.8 mph - N/A   Overcast
7:56 AM 39.2 °F 35.9 °F 24.8 °F 56% 30.43 in 10.0 mi SSE 4.6 mph - N/A   Mostly Cloudy
8:56 AM 46.0 °F 43.1 °F 26.1 °F 46% 30.49 in 10.0 mi SE 5.8 mph - N/A   Mostly Cloudy
9:56 AM 50.0 °F - 26.1 °F 39% 30.49 in 10.0 mi SSE 12.7 mph 19.6 mph N/A   Clear
10:56 AM 52.0 °F - 26.1 °F 37% 30.46 in 10.0 mi South 6.9 mph - N/A   Clear
11:56 AM 53.1 °F - 25.0 °F 34% 30.43 in 10.0 mi SE 11.5 mph - N/A   Clear
1:56 PM 55.0 °F - 26.1 °F 33% 30.38 in 10.0 mi SE 8.1 mph - N/A   Clear
2:56 PM 55.9 °F - 26.1 °F 32% 30.37 in 10.0 mi SSE 10.4 mph - N/A   Clear
3:56 PM 53.1 °F - 27.0 °F 37% 30.37 in 10.0 mi SSE 5.8 mph - N/A   Clear
4:56 PM 51.1 °F - 27.0 °F 39% 30.36 in 10.0 mi SE 8.1 mph - N/A   Clear
5:56 PM 50.0 °F - 27.0 °F 41% 30.37 in 10.0 mi SE 8.1 mph - N/A   Clear
6:56 PM 50.0 °F - 26.1 °F 39% 30.37 in 10.0 mi SSE 11.5 mph - N/A   Clear
7:56 PM 48.9 °F - 25.0 °F 39% 30.34 in 10.0 mi SE 8.1 mph - N/A   Clear
8:56 PM 46.9 °F - 25.0 °F 42% 30.32 in 10.0 mi SSE 12.7 mph - N/A   Clear
9:56 PM 46.0 °F 40.6 °F 25.0 °F 44% 30.30 in 10.0 mi South 11.5 mph - N/A   Clear
10:56 PM 46.0 °F 41.0 °F 26.1 °F 46% 30.28 in 10.0 mi SSE 10.4 mph - N/A   Clear
11:56 PM 46.0 °F 41.9 °F 26.1 °F 46% 30.27 in 10.0 mi SSE 8.1 mph - N/A   Clear